Location: Hains Lake
(37.8540°N, 99.8578°W)
Time: 04:23:45
(UTC+00:00)

Tiros 1 despin weight - Pass Details

Date: 24 April 2021
Orbit: 593 x 642 km, 48.2° (Epoch: 07 May)

Event Time Altitude Azimuth Distance (km) Brightness Sun altitude
Rises 09:32:15 0° 227° (SW) 2,925 - -24.7°
Reaches altitude 10° 09:34:35 10° 224° (SW) 2,014 - -24.4°
Exits shadow 09:39:03 66° 155° (SSE) 689 ? -23.7°
Maximum altitude 09:39:11 66° 143° (SE) 687 ? -23.7°
Drops below altitude 10° 09:43:45 10° 61° (ENE) 1,998 ? -23.0°
Sets 09:46:04 0° 59° (ENE) 2,899 ? -22.7°
